Theta_e
299 300 317 324 328 331 334 336 339 341 342 344 346 347 347 347 347 348 347 347 347 348 348 348 344 343 343 341 340 340 340 340 341 340 341 340 339 337 335 337 338 332 334
300 301 314 320 325 328 331 333 335 336 339 341 344 345 346 346 346 346 345 345 345 346 346 347 346 345 343 342 342 341 339 340 341 340 340 343 342 338 336 336 336 328 330
299 302 307 317 321 323 326 328 331 332 334 337 340 342 342 344 345 345 345 345 345 345 345 345 346 346 345 346 342 340 340 340 341 340 339 333 337 340 336 333 331 332 335
300 302 306 314 318 320 322 324 326 328 330 332 335 336 338 340 341 342 342 343 344 344 344 345 346 345 346 346 342 341 342 341 341 339 332 329 332 339 334 332 331 331 333
299 300 304 312 316 317 319 320 321 322 324 327 329 330 332 334 335 337 338 339 339 341 342 343 344 344 344 344 344 344 343 342 340 336 330 328 327 334 335 335 335 334 334
298 299 303 309 312 314 315 317 317 318 319 321 322 324 326 327 328 331 333 333 335 336 338 339 338 339 340 342 343 344 343 342 339 332 329 332 326 338 336 336 340 341 337
297 298 300 305 307 310 312 313 314 314 315 316 317 318 320 321 322 324 327 327 330 331 332 333 333 334 334 336 341 341 342 339 337 333 335 333 329 340 338 336 338 338 339
297 299 299 304 304 306 307 309 310 311 311 311 312 312 314 315 316 317 319 321 322 324 326 328 328 329 329 333 336 338 336 335 336 333 333 334 338 340 339 336 337 338 339
297 297 297 298 301 305 305 305 306 307 308 309 309 309 309 311 312 312 312 315 316 319 320 321 322 323 324 328 330 327 329 331 330 334 334 333 338 338 336 337 338 338 338
295 296 296 297 298 297 298 303 304 305 306 306 306 306 307 307 307 308 307 310 312 314 315 316 317 318 320 322 323 321 322 325 328 330 329 333 339 340 340 339 339 340 340
295 294 295 295 296 297 298 300 302 303 303 303 302 304 303 301 301 302 306 307 309 310 311 313 314 315 315 318 319 319 320 320 321 330 324 326 334 339 340 339 339 339 339
291 293 293 294 295 296 298 297 297 298 297 297 296 298 299 299 300 303 304 306 306 306 308 309 310 309 309 306 307 314 314 315 317 318 318 323 331 336 337 337 338 339 339
291 292 293 294 294 294 295 295 295 295 295 295 294 295 297 298 297 297 297 298 298 301 299 300 301 302 302 302 303 303 304 306 311 314 317 319 324 327 331 333 334 336 337
291 291 292 292 293 294 295 294 293 293 293 292 292 293 294 294 294 294 294 294 295 295 295 296 297 299 300 300 301 301 302 302 304 307 313 315 315 320 323 326 328 329 330
290 290 290 291 292 292 291 291 291 291 290 290 289 290 291 290 290 291 291 291 292 293 293 293 294 295 296 297 299 300 301 303 304 307 309 311 311 313 317 320 321 324 325
290 289 289 289 290 290 289 289 288 288 288 288 288 288 289 289 289 289 289 289 290 291 291 292 292 293 293 294 295 298 302 301 304 302 303 299 307 307 310 314 315 318 320
288 290 288 288 289 288 288 288 287 288 288 287 287 287 287 288 287 287 287 287 288 290 290 290 291 292 291 293 292 296 301 298 301 298 296 296 298 301 304 307 309 313 316
287 287 287 289 287 287 286 287 287 287 286 286 286 286 287 287 287 286 286 286 287 288 288 289 289 289 289 289 289 294 297 296 298 295 293 293 294 294 297 303 304 308 310
286 286 287 287 286 287 287 286 286 286 285 285 285 285 286 287 287 286 285 286 287 286 286 287 288 288 287 288 290 294 295 293 295 294 291 291 292 292 292 298 299 301 304
285 285 286 287 286 286 286 286 286 286 285 285 284 285 286 286 286 285 285 285 286 285 284 285 286 287 286 287 290 293 300 291 294 291 291 291 290 291 291 292 292 294 299
284 284 284 284 285 285 285 284 284 283 283 283 284 286 286 285 286 285 284 284 285 284 283 284 285 285 285 287 285 288 295 289 289 290 290 288 288 289 289 290 291 292 293
283 283 284 284 285 285 285 284 284 282 283 283 285 285 286 285 286 285 284 284 284 283 283 282 283 283 284 286 282 284 282 287 286 289 288 288 286 287 288 289 290 290 290
281 282 283 284 284 284 285 285 284 284 283 282 283 283 284 285 285 285 284 284 283 283 282 281 282 282 281 283 284 282 278 277 282 286 285 285 285 285 286 287 289 289 288
281 282 283 284 284 284 284 284 283 281 279 281 282 283 283 285 284 284 284 283 283 283 281 282 283 281 281 280 283 285 283 282 278 277 282 283 284 285 284 285 286 288 287
283 282 282 283 283 283 283 284 283 281 281 281 282 282 282 283 283 283 284 282 281 282 281 281 280 280 281 280 280 281 281 281 282 278 276 278 282 283 284 285 284 286 286
283 283 282 283 282 283 283 282 282 281 281 280 280 280 281 281 282 282 283 282 281 281 281 281 281 280 280 280 280 281 280 279 278 278 276 277 277 279 282 284 283 283 284
Wind_Speed
8 8 16 18 19 20 20 20 21 20 20 19 17 15 11 10 9 10 11 11 10 10 11 10 3 0 1 1 2 3 4 4 5 5 4 2 5 5 4 7 10 7 6
5 7 16 17 18 19 19 19 19 19 19 19 18 17 16 13 10 9 10 10 10 10 10 9 8 3 1 1 1 1 2 2 3 3 4 4 7 5 3 6 8 5 5
6 8 12 17 17 18 18 18 18 18 18 18 18 18 17 16 16 13 12 11 10 10 10 9 10 10 3 2 2 1 1 1 1 3 7 4 5 7 3 2 4 5 5
8 9 11 15 16 17 18 18 18 18 18 18 17 16 16 16 16 15 14 15 14 12 11 11 11 10 11 4 4 4 3 3 2 4 5 7 4 9 6 2 1 2 4
7 9 11 14 15 16 16 16 17 17 17 17 17 17 17 16 16 16 15 16 13 12 12 11 11 12 11 9 5 5 5 4 4 5 7 7 2 6 4 3 3 3 3
7 7 10 13 15 16 16 16 17 16 17 16 15 15 15 15 15 16 16 16 14 14 14 13 12 12 13 11 11 7 6 4 4 6 8 6 3 8 5 2 4 5 5
7 6 7 13 13 15 15 16 16 17 17 17 16 15 15 15 15 15 17 17 15 14 14 14 13 13 13 13 12 11 4 6 6 6 8 5 3 11 6 3 6 8 10
7 7 7 9 9 11 15 16 16 17 17 16 17 15 13 15 15 17 16 16 15 14 15 14 14 13 14 12 11 11 9 4 6 6 7 5 4 6 6 3 7 10 11
7 7 6 7 8 10 13 14 15 17 17 17 16 16 14 13 14 15 16 16 17 15 15 15 15 15 14 12 12 13 11 8 5 5 7 4 2 6 3 4 6 11 12
7 7 7 6 6 5 5 10 13 15 17 18 17 17 14 15 15 14 15 16 17 15 15 15 16 15 15 14 15 16 14 11 6 6 5 9 6 6 7 5 7 11 13
7 7 7 6 6 6 5 6 10 13 16 18 16 17 10 6 7 8 12 15 15 17 16 16 16 17 18 12 10 12 13 6 8 6 8 21 21 17 14 12 12 13 13
6 6 6 6 7 6 7 6 6 8 5 7 10 9 7 7 7 9 9 16 17 19 18 18 18 17 11 6 6 8 4 6 6 7 8 21 22 20 19 18 17 17 17
5 4 7 6 6 6 4 4 3 3 4 4 10 9 6 6 5 5 4 5 6 12 7 10 9 6 7 6 6 6 7 6 3 4 12 21 23 25 24 23 24 26 27
4 5 6 6 6 6 5 4 4 4 5 6 8 11 7 5 6 6 6 7 7 6 8 6 6 7 7 8 7 6 6 5 4 3 9 19 22 23 23 23 25 24 25
5 5 6 6 6 5 6 4 5 5 4 6 7 9 8 6 6 6 6 6 6 7 6 6 7 6 6 8 7 6 6 6 6 4 5 17 21 22 23 24 25 24 26
5 5 6 6 6 6 5 7 5 4 5 5 6 7 9 6 6 6 6 6 6 6 6 5 7 6 7 7 7 6 6 7 8 11 9 9 20 22 25 24 25 25 25
5 4 6 5 6 6 6 5 4 5 5 4 4 6 8 8 6 6 5 6 7 6 9 6 7 6 7 7 8 6 7 8 10 12 11 8 9 19 23 24 24 25 26
5 5 4 5 5 6 6 5 4 4 4 5 5 5 7 8 7 6 5 6 7 6 8 7 7 6 7 8 6 5 6 8 10 10 11 8 8 7 14 23 24 24 25
6 6 4 4 5 5 5 4 5 6 5 4 5 5 7 8 9 5 5 6 6 7 7 8 7 6 8 8 7 4 5 6 6 8 11 11 10 9 8 17 22 24 25
5 5 5 4 4 2 3 4 4 4 4 4 4 5 7 6 8 6 5 7 5 6 7 9 9 8 6 9 6 5 5 5 5 7 7 9 9 10 9 9 7 10 24
6 6 6 5 3 2 0 3 4 3 4 4 4 6 6 6 7 7 5 6 6 7 8 10 7 10 10 11 5 5 4 6 7 5 5 7 9 10 10 8 6 5 8
7 7 5 6 4 3 3 2 3 4 3 3 4 5 6 6 7 7 6 6 6 5 8 8 10 7 5 9 4 3 5 3 8 5 6 8 9 7 9 9 8 7 8
7 7 6 6 5 4 5 3 2 2 1 3 4 3 4 5 6 6 6 5 6 5 6 5 8 8 6 5 10 4 4 3 5 4 7 9 11 8 8 7 7 7 8
6 6 6 6 5 4 3 2 1 2 4 1 3 2 3 5 5 6 6 6 6 4 6 6 6 5 5 6 4 7 5 2 3 5 4 6 9 8 8 6 5 6 8
9 8 7 7 6 5 2 4 3 4 3 2 2 3 3 3 5 6 6 6 6 4 5 6 5 6 4 3 3 3 3 3 7 2 4 7 7 6 6 6 4 4 7
8 9 8 9 7 6 5 2 3 6 4 3 1 2 2 2 3 5 5 5 5 5 5 5 5 6 5 5 4 4 3 3 3 2 3 8 6 6 9 4 5 4 7
Wind_Direction
42 17 12 9 16 15 17 19 24 25 21 22 24 25 24 33 41 41 37 30 27 23 19 20 15 98 106 67 60 71 65 56 49 47 35 37 96 87 46 14 14 72 46
34 36 17 12 18 17 17 19 23 26 22 19 23 26 27 27 21 34 40 31 23 23 22 25 16 326 279 173 141 115 93 61 54 13 318 308 146 122 59 17 19 35 33
43 55 16 15 20 20 19 18 22 24 23 25 24 26 26 22 29 28 34 33 26 21 20 16 21 9 279 203 230 209 178 144 338 311 294 258 190 151 126 24 17 17 357
42 51 25 19 23 22 22 19 22 23 24 22 23 24 28 30 31 25 25 24 24 20 19 19 18 15 6 240 223 219 214 212 240 277 290 286 188 166 155 159 330 343 353
50 54 30 26 29 26 24 24 23 23 23 23 22 21 26 27 25 24 28 28 20 14 12 15 15 17 13 4 281 239 223 224 233 255 260 272 351 147 161 174 261 274 292
49 51 48 34 33 29 27 26 26 25 24 24 24 24 24 25 27 25 31 24 18 16 13 17 11 4 3 1 0 283 237 231 276 252 257 262 173 146 177 221 294 291 276
57 36 66 41 35 33 30 29 29 26 25 24 22 23 27 28 28 25 23 23 16 17 18 16 11 3 356 350 351 3 275 207 253 270 291 302 220 169 183 224 287 295 292
39 35 26 47 37 44 33 30 28 27 25 23 21 20 23 27 30 26 24 20 14 13 16 12 8 4 359 351 349 358 2 323 260 260 272 311 58 180 191 246 283 287 292
39 39 35 20 20 39 49 33 29 27 24 22 22 18 16 27 22 30 22 16 16 11 14 9 7 2 0 354 2 5 348 329 302 280 286 276 130 222 262 261 287 289 287
53 32 22 26 16 18 37 35 34 27 28 23 18 16 16 26 17 27 23 11 14 9 11 7 6 5 5 10 10 356 338 308 267 269 291 345 244 215 233 279 299 294 285
45 35 28 21 11 0 41 40 38 30 32 27 14 14 8 16 3 9 17 14 14 10 10 9 10 9 4 3 6 357 0 3 351 1 45 18 13 358 336 326 319 297 291
29 32 27 21 14 13 26 32 26 30 24 36 12 360 5 18 3 15 8 18 13 17 11 12 13 11 5 355 351 349 358 359 8 9 37 25 19 12 360 346 333 323 304
44 33 21 21 23 8 18 41 33 19 26 27 24 8 6 13 2 7 8 11 9 10 5 8 4 359 355 359 353 358 358 351 3 27 43 32 27 26 22 21 23 26 25
52 46 37 25 29 10 31 37 32 35 31 32 24 15 9 11 12 13 13 9 13 0 359 1 356 351 357 359 354 3 353 350 350 39 59 52 36 30 25 25 28 26 26
86 66 49 39 43 29 29 38 32 40 37 45 27 18 14 18 10 16 14 10 7 2 359 356 353 349 355 356 355 357 354 356 349 32 69 53 42 33 28 27 31 27 29
102 78 62 46 46 53 43 44 35 40 34 39 40 25 16 12 16 21 12 8 2 2 355 352 0 357 359 358 345 345 16 16 27 46 50 30 30 31 31 28 31 26 31
77 80 63 66 43 57 63 59 47 37 45 44 38 31 23 16 19 17 16 7 1 3 1 351 7 357 7 358 338 345 44 13 56 46 44 36 24 28 30 30 31 28 31
126 97 86 73 62 64 60 54 53 45 48 42 35 24 29 18 14 23 19 9 4 6 8 359 1 1 11 357 327 350 56 20 59 42 48 33 32 21 27 30 30 30 31
120 128 127 100 82 74 76 84 64 53 51 43 36 27 22 21 15 26 22 5 12 9 10 3 359 3 9 355 330 10 76 32 47 42 58 34 26 21 27 22 28 28 29
125 113 119 119 115 125 144 120 98 76 64 58 29 36 31 16 21 17 19 13 8 18 14 9 6 355 14 352 333 2 89 25 60 56 62 41 22 21 23 13 17 21 25
151 151 150 135 145 204 329 89 72 69 70 57 57 33 37 22 17 19 13 13 10 25 16 12 355 1 14 6 359 352 60 76 36 64 42 48 23 17 22 3 12 22 19
169 168 150 127 129 60 66 35 69 103 76 100 85 49 32 30 23 33 17 15 18 18 15 18 12 5 1 11 357 299 10 321 15 15 37 34 16 10 19 357 14 17 27
179 170 159 137 119 100 101 91 67 44 81 61 56 65 31 34 32 28 26 23 19 28 19 12 16 13 7 354 30 43 12 351 330 359 32 34 5 358 4 343 9 11 23
188 164 152 141 134 127 180 174 146 114 105 96 105 81 82 50 38 31 29 30 25 26 21 14 20 14 6 20 5 7 49 331 14 329 352 24 352 342 355 330 3 1 12
166 161 161 156 154 136 159 131 107 96 120 125 112 117 106 91 66 35 34 33 32 28 21 16 14 22 9 32 18 352 0 347 48 322 302 340 331 331 333 318 350 25 25
158 157 163 162 160 160 152 163 122 131 152 133 110 112 121 111 89 45 38 37 38 27 19 4 21 31 14 18 19 10 30 9 354 357 319 329 315 315 311 322 13 11 18